Location: Asheville, NC
(35.6000°N, 82.5500°W)
Time: 04:49:31
(UTC-04:00)

Vanguard 2 Rocket - Pass Details

Date: 17 February 2018
Orbit: 554 x 3327 km, 32.9° (Epoch: 20 May)

Event Time Altitude Azimuth Distance (km) Brightness Sun altitude
Rises 02:49:03 0° 269° (W) 6,326 - -53.2°
Reaches altitude 10° 02:52:46 10° 269° (W) 5,581 - -52.6°
Maximum altitude 03:11:29 82° 185° (S) 3,346 - -49.2°
Exits shadow 03:12:29 80° 153° (SSE) 3,360 9.4 -49.1°
Drops below altitude 10° 03:31:00 10° 102° (ESE) 5,775 11.4 -45.6°
Sets 03:34:54 0° 101° (ESE) 6,544 11.9 -44.9°
